Time,TemperatureF,DewpointF,PressureIn,WindDirection,WindDirectionDegrees,WindSpeedMPH,WindSpeedGustMPH,Humidity,HourlyPrecipIn,Conditions,Clouds,dailyrainin,SoftwareType,DateUTC
2013-07-30 00:03:00,87.0,66.0,29.94,NNE,12,3.0,13.0,50,0.00,,,0.00,,2013-07-30 05:03:00,
2013-07-30 00:12:00,87.0,66.0,29.94,NNE,12,3.0,13.0,50,0.00,,,0.00,,2013-07-30 05:12:00,
2013-07-30 00:22:00,87.0,66.0,29.95,NNE,12,2.0,9.0,50,0.00,,,0.00,,2013-07-30 05:22:00,
2013-07-30 00:32:00,86.0,65.0,29.95,NW,326,3.0,10.0,49,0.00,,,0.00,,2013-07-30 05:32:00,
2013-07-30 00:45:00,86.0,65.0,29.95,NW,326,3.0,10.0,49,0.00,,,0.00,,2013-07-30 05:45:00,
2013-07-30 00:52:00,86.0,65.0,29.95,SSE,163,1.0,9.0,50,0.00,,,0.00,,2013-07-30 05:52:00,
2013-07-30 01:02:00,86.0,65.0,29.96,NNE,31,1.0,9.0,50,0.00,,,0.00,,2013-07-30 06:02:00,
2013-07-30 01:12:00,86.0,65.0,29.96,NNE,31,1.0,9.0,50,0.00,,,0.00,,2013-07-30 06:12:00,
2013-07-30 01:22:00,85.0,64.0,29.95,West,276,2.0,8.0,50,0.00,,,0.00,,2013-07-30 06:22:00,
2013-07-30 01:32:00,85.0,64.0,29.95,West,276,2.0,8.0,50,0.00,,,0.00,,2013-07-30 06:32:00,
2013-07-30 01:43:00,85.0,65.0,29.95,NNE,23,1.0,8.0,51,0.00,,,0.00,,2013-07-30 06:43:00,
2013-07-30 01:52:00,85.0,65.0,29.95,East,90,2.0,11.0,51,0.00,,,0.00,,2013-07-30 06:52:00,
2013-07-30 02:02:00,85.0,65.0,29.95,East,90,2.0,11.0,51,0.00,,,0.00,,2013-07-30 07:02:00,
2013-07-30 02:13:00,85.0,65.0,29.95,SSW,209,6.0,12.0,52,0.00,,,0.00,,2013-07-30 07:13:00,
2013-07-30 02:22:00,84.0,65.0,29.95,NE,46,5.0,12.0,53,0.00,,,0.00,,2013-07-30 07:22:00,
2013-07-30 02:33:00,84.0,65.0,29.95,NE,46,5.0,12.0,53,0.00,,,0.00,,2013-07-30 07:33:00,
2013-07-30 02:43:00,84.0,66.0,29.96,North,4,4.0,10.0,54,0.00,,,0.00,,2013-07-30 07:43:00,
2013-07-30 02:53:00,83.0,66.0,29.96,WNW,283,4.0,12.0,56,0.00,,,0.00,,2013-07-30 07:53:00,
2013-07-30 03:03:00,83.0,66.0,29.96,WNW,283,4.0,12.0,56,0.00,,,0.00,,2013-07-30 08:03:00,
2013-07-30 03:12:00,83.0,66.0,29.96,ENE,62,2.0,14.0,57,0.00,,,0.00,,2013-07-30 08:12:00,
2013-07-30 03:22:00,82.0,66.0,29.97,ENE,70,3.0,12.0,59,0.00,,,0.00,,2013-07-30 08:22:00,
2013-07-30 03:33:00,82.0,66.0,29.97,ENE,70,3.0,12.0,59,0.00,,,0.00,,2013-07-30 08:33:00,
2013-07-30 03:43:00,82.0,67.0,29.97,North,355,4.0,11.0,60,0.00,,,0.00,,2013-07-30 08:43:00,
2013-07-30 03:52:00,81.0,67.0,29.97,North,9,2.0,12.0,63,0.00,,,0.00,,2013-07-30 08:52:00,
2013-07-30 04:03:00,81.0,67.0,29.97,North,9,2.0,12.0,63,0.00,,,0.00,,2013-07-30 09:03:00,
2013-07-30 04:13:00,81.0,68.0,29.98,NW,314,2.0,13.0,64,0.00,,,0.00,,2013-07-30 09:13:00,
2013-07-30 04:22:00,81.0,68.0,29.97,North,8,1.0,7.0,65,0.00,,,0.00,,2013-07-30 09:22:00,
2013-07-30 04:33:00,81.0,68.0,29.97,North,8,1.0,7.0,65,0.00,,,0.00,,2013-07-30 09:33:00,
2013-07-30 04:43:00,80.0,68.0,29.98,North,9,3.0,9.0,67,0.00,,,0.00,,2013-07-30 09:43:00,
2013-07-30 04:53:00,80.0,69.0,29.98,NNW,330,2.0,9.0,69,0.00,,,0.00,,2013-07-30 09:53:00,
2013-07-30 05:03:00,80.0,69.0,29.98,NNW,330,2.0,9.0,69,0.00,,,0.00,,2013-07-30 10:03:00,
2013-07-30 05:12:00,80.0,69.0,29.98,ENE,69,1.0,9.0,70,0.00,,,0.00,,2013-07-30 10:12:00,
2013-07-30 05:22:00,80.0,70.0,29.99,NNE,31,2.0,8.0,72,0.00,,,0.00,,2013-07-30 10:22:00,
2013-07-30 05:32:00,80.0,70.0,29.99,NNE,31,2.0,8.0,72,0.00,,,0.00,,2013-07-30 10:32:00,
2013-07-30 05:43:00,80.0,71.0,29.99,East,91,1.0,7.0,73,0.00,,,0.00,,2013-07-30 10:43:00,
2013-07-30 05:52:00,79.0,70.0,29.99,NW,311,1.0,8.0,75,0.00,,,0.00,,2013-07-30 10:52:00,
2013-07-30 06:02:00,79.0,70.0,29.99,NW,311,1.0,8.0,75,0.00,,,0.00,,2013-07-30 11:02:00,
2013-07-30 06:11:00,79.0,71.0,30.01,SW,219,0.0,5.0,76,0.00,,,0.00,,2013-07-30 11:11:00,
2013-07-30 06:22:00,79.0,71.0,30.02,West,273,3.0,8.0,77,0.00,,,0.00,,2013-07-30 11:22:00,
2013-07-30 06:33:00,79.0,71.0,30.02,West,273,3.0,8.0,77,0.00,,,0.00,,2013-07-30 11:33:00,
2013-07-30 06:43:00,79.0,72.0,30.03,North,356,0.0,3.0,78,0.00,,,0.00,,2013-07-30 11:43:00,
2013-07-30 06:53:00,79.0,72.0,30.04,NNE,25,0.0,5.0,78,0.00,,,0.00,,2013-07-30 11:53:00,
2013-07-30 07:12:00,78.0,71.0,30.05,NNE,12,0.0,5.0,79,0.00,,,0.00,,2013-07-30 12:12:00,
2013-07-30 07:22:00,78.0,71.0,30.06,North,351,0.0,2.0,79,0.00,,,0.00,,2013-07-30 12:22:00,
2013-07-30 07:33:00,78.0,71.0,30.06,North,351,0.0,2.0,79,0.00,,,0.00,,2013-07-30 12:33:00,
2013-07-30 07:42:00,78.0,71.0,30.07,NW,320,0.0,2.0,79,0.00,,,0.00,,2013-07-30 12:42:00,
2013-07-30 07:53:00,79.0,72.0,30.06,West,276,0.0,3.0,79,0.00,,,0.00,,2013-07-30 12:53:00,
2013-07-30 08:02:00,79.0,72.0,30.06,West,276,0.0,3.0,79,0.00,,,0.00,,2013-07-30 13:02:00,
2013-07-30 08:12:00,79.0,72.0,30.06,North,352,0.0,6.0,79,0.00,,,0.00,,2013-07-30 13:12:00,
2013-07-30 08:22:00,79.0,72.0,30.07,NNE,15,0.0,4.0,79,0.00,,,0.00,,2013-07-30 13:22:00,
2013-07-30 08:32:00,79.0,72.0,30.07,NNE,15,0.0,4.0,79,0.00,,,0.00,,2013-07-30 13:32:00,
2013-07-30 08:42:00,80.0,73.0,30.06,NW,316,1.0,5.0,79,0.00,,,0.00,,2013-07-30 13:42:00,
2013-07-30 08:52:00,80.0,72.0,30.06,North,360,1.0,4.0,77,0.00,,,0.00,,2013-07-30 13:52:00,
2013-07-30 09:02:00,80.0,72.0,30.06,North,360,1.0,4.0,77,0.00,,,0.00,,2013-07-30 14:02:00,
2013-07-30 09:12:00,81.0,73.0,30.06,ENE,68,2.0,8.0,77,0.00,,,0.00,,2013-07-30 14:12:00,
2013-07-30 09:22:00,81.0,73.0,30.06,NE,41,2.0,8.0,76,0.00,,,0.00,,2013-07-30 14:22:00,
2013-07-30 09:33:00,81.0,73.0,30.06,NE,41,2.0,8.0,76,0.00,,,0.00,,2013-07-30 14:33:00,
2013-07-30 09:43:00,81.0,73.0,30.04,NE,56,1.0,11.0,76,0.00,,,0.00,,2013-07-30 14:43:00,
2013-07-30 09:53:00,81.0,72.0,30.04,ENE,68,2.0,8.0,75,0.00,,,0.00,,2013-07-30 14:53:00,
2013-07-30 10:02:00,81.0,72.0,30.04,ENE,68,2.0,8.0,75,0.00,,,0.00,,2013-07-30 15:02:00,
2013-07-30 10:12:00,82.0,73.0,30.03,NE,43,5.0,10.0,74,0.00,,,0.00,,2013-07-30 15:12:00,
2013-07-30 10:23:00,82.0,72.0,30.03,NNW,346,5.0,14.0,72,0.00,,,0.00,,2013-07-30 15:23:00,
2013-07-30 10:33:00,82.0,72.0,30.03,NNW,346,5.0,14.0,72,0.00,,,0.00,,2013-07-30 15:33:00,
2013-07-30 10:43:00,83.0,73.0,30.03,WNW,300,4.0,12.0,72,0.00,,,0.00,,2013-07-30 15:43:00,
2013-07-30 10:52:00,83.0,72.0,30.02,NE,45,3.0,13.0,70,0.00,,,0.00,,2013-07-30 15:52:00,
2013-07-30 11:02:00,83.0,72.0,30.02,NE,45,3.0,13.0,70,0.00,,,0.00,,2013-07-30 16:02:00,
2013-07-30 11:12:00,84.0,72.0,30.02,NNE,27,4.0,14.0,68,0.00,,,0.00,,2013-07-30 16:12:00,
2013-07-30 11:22:00,85.0,72.0,30.02,NNE,19,4.0,14.0,66,0.00,,,0.00,,2013-07-30 16:22:00,
2013-07-30 11:43:00,86.0,73.0,30.02,NE,49,4.0,13.0,65,0.00,,,0.00,,2013-07-30 16:43:00,
2013-07-30 11:52:00,87.0,72.0,30.01,NNE,27,5.0,11.0,62,0.00,,,0.00,,2013-07-30 16:52:00,
2013-07-30 12:02:00,87.0,72.0,30.01,NNE,27,5.0,11.0,62,0.00,,,0.00,,2013-07-30 17:02:00,
2013-07-30 12:22:00,88.0,72.0,30.01,NW,321,5.0,13.0,59,0.00,,,0.00,,2013-07-30 17:22:00,
2013-07-30 12:32:00,88.0,72.0,30.01,NW,321,5.0,13.0,59,0.00,,,0.00,,2013-07-30 17:32:00,
2013-07-30 12:43:00,88.0,72.0,30.00,NW,317,4.0,10.0,60,0.00,,,0.00,,2013-07-30 17:43:00,
2013-07-30 12:53:00,89.0,73.0,30.00,NW,313,1.0,8.0,59,0.00,,,0.00,,2013-07-30 17:53:00,
2013-07-30 13:03:00,89.0,73.0,30.00,NW,313,1.0,8.0,59,0.00,,,0.00,,2013-07-30 18:03:00,
2013-07-30 13:12:00,89.0,73.0,30.00,NW,313,1.0,8.0,59,0.00,,,0.00,,2013-07-30 18:12:00,
2013-07-30 13:23:00,91.0,73.0,29.99,NNE,15,2.0,6.0,56,0.00,,,0.00,,2013-07-30 18:23:00,
2013-07-30 13:32:00,91.0,73.0,29.99,NNE,15,2.0,6.0,56,0.00,,,0.00,,2013-07-30 18:32:00,
2013-07-30 13:43:00,93.0,73.0,29.99,NNE,26,2.0,8.0,53,0.00,,,0.00,,2013-07-30 18:43:00,
2013-07-30 13:52:00,94.0,74.0,29.99,NNW,348,3.0,8.0,52,0.00,,,0.00,,2013-07-30 18:52:00,
2013-07-30 14:02:00,94.0,74.0,29.99,NNW,348,3.0,8.0,52,0.00,,,0.00,,2013-07-30 19:02:00,
2013-07-30 14:12:00,93.0,72.0,29.99,NNW,341,2.0,8.0,51,0.00,,,0.00,,2013-07-30 19:12:00,
2013-07-30 14:22:00,93.0,73.0,29.99,East,84,3.0,9.0,52,0.00,,,0.00,,2013-07-30 19:22:00,
2013-07-30 14:33:00,93.0,73.0,29.99,East,84,3.0,9.0,52,0.00,,,0.00,,2013-07-30 19:33:00,
2013-07-30 14:44:00,94.0,73.0,29.98,NNE,33,2.0,7.0,51,0.00,,,0.00,,2013-07-30 19:44:00,
2013-07-30 14:52:00,94.0,73.0,29.98,NNE,18,1.0,7.0,51,0.00,,,0.00,,2013-07-30 19:52:00,
2013-07-30 15:02:00,94.0,73.0,29.98,NNE,18,1.0,7.0,51,0.00,,,0.00,,2013-07-30 20:02:00,
2013-07-30 15:12:00,93.0,72.0,29.98,North,4,2.0,10.0,51,0.00,,,0.00,,2013-07-30 20:12:00,
2013-07-30 15:22:00,93.0,72.0,29.97,NNE,15,3.0,9.0,51,0.00,,,0.00,,2013-07-30 20:22:00,
2013-07-30 15:32:00,93.0,72.0,29.97,NNE,15,3.0,9.0,51,0.00,,,0.00,,2013-07-30 20:32:00,
2013-07-30 15:43:00,94.0,72.0,29.97,NNW,346,1.0,5.0,50,0.00,,,0.00,,2013-07-30 20:43:00,
2013-07-30 15:52:00,94.0,72.0,29.96,NE,43,2.0,8.0,50,0.00,,,0.00,,2013-07-30 20:52:00,
2013-07-30 16:02:00,94.0,72.0,29.96,NE,43,2.0,8.0,50,0.00,,,0.00,,2013-07-30 21:02:00,
2013-07-30 16:12:00,94.0,72.0,29.96,NNE,15,2.0,5.0,49,0.00,,,0.00,,2013-07-30 21:12:00,
2013-07-30 16:22:00,94.0,72.0,29.96,NNE,15,2.0,5.0,49,0.00,,,0.00,,2013-07-30 21:22:00,
2013-07-30 16:32:00,94.0,72.0,29.96,NNE,15,2.0,5.0,49,0.00,,,0.00,,2013-07-30 21:32:00,
2013-07-30 16:42:00,98.0,72.0,29.95,North,1,1.0,4.0,44,0.00,,,0.00,,2013-07-30 21:42:00,
2013-07-30 16:52:00,98.0,72.0,29.94,NE,43,3.0,7.0,43,0.00,,,0.00,,2013-07-30 21:52:00,
2013-07-30 17:02:00,98.0,72.0,29.94,NE,43,3.0,7.0,43,0.00,,,0.00,,2013-07-30 22:02:00,
2013-07-30 17:12:00,97.0,71.0,29.94,NE,47,2.0,6.0,44,0.00,,,0.00,,2013-07-30 22:12:00,
2013-07-30 17:22:00,97.0,71.0,29.93,NNE,23,1.0,6.0,44,0.00,,,0.00,,2013-07-30 22:22:00,
2013-07-30 17:32:00,97.0,71.0,29.93,NNE,23,1.0,6.0,44,0.00,,,0.00,,2013-07-30 22:32:00,
2013-07-30 17:43:00,97.0,71.0,29.93,NE,34,3.0,8.0,43,0.00,,,0.00,,2013-07-30 22:43:00,
2013-07-30 17:52:00,98.0,72.0,29.93,NE,53,1.0,5.0,43,0.00,,,0.00,,2013-07-30 22:52:00,
2013-07-30 18:02:00,98.0,72.0,29.93,NE,53,1.0,5.0,43,0.00,,,0.00,,2013-07-30 23:02:00,
2013-07-30 18:12:00,98.0,72.0,29.93,NE,45,1.0,6.0,44,0.00,,,0.00,,2013-07-30 23:12:00,
2013-07-30 18:22:00,98.0,72.0,29.93,NE,45,1.0,6.0,44,0.00,,,0.00,,2013-07-30 23:22:00,
2013-07-30 18:32:00,98.0,72.0,29.93,NE,45,1.0,6.0,44,0.00,,,0.00,,2013-07-30 23:32:00,
2013-07-30 18:42:00,98.0,74.0,29.92,North,353,0.0,2.0,46,0.00,,,0.00,,2013-07-30 23:42:00,
2013-07-30 18:53:00,97.0,72.0,29.92,ENE,63,0.0,3.0,45,0.00,,,0.00,,2013-07-30 23:53:00,
2013-07-30 19:02:00,97.0,72.0,29.92,ENE,63,0.0,3.0,45,0.00,,,0.00,,2013-07-31 00:02:00,
2013-07-30 19:12:00,97.0,73.0,29.92,NNE,23,0.0,3.0,46,0.00,,,0.00,,2013-07-31 00:12:00,
2013-07-30 19:22:00,96.0,71.0,29.91,North,8,2.0,5.0,45,0.00,,,0.00,,2013-07-31 00:22:00,
2013-07-30 19:32:00,96.0,71.0,29.91,North,8,2.0,5.0,45,0.00,,,0.00,,2013-07-31 00:32:00,
2013-07-30 19:43:00,95.0,72.0,29.92,NW,318,0.0,4.0,47,0.00,,,0.00,,2013-07-31 00:43:00,
2013-07-30 19:53:00,95.0,72.0,29.92,SW,236,0.0,5.0,47,0.00,,,0.00,,2013-07-31 00:53:00,
2013-07-30 20:02:00,95.0,72.0,29.92,SW,236,0.0,5.0,47,0.00,,,0.00,,2013-07-31 01:02:00,
2013-07-30 20:12:00,95.0,72.0,29.93,NE,56,0.0,4.0,47,0.00,,,0.00,,2013-07-31 01:12:00,
2013-07-30 20:22:00,95.0,72.0,29.93,NE,56,0.0,4.0,47,0.00,,,0.00,,2013-07-31 01:22:00,
2013-07-30 20:32:00,94.0,71.0,29.93,North,357,0.0,2.0,47,0.00,,,0.00,,2013-07-31 01:32:00,
2013-07-30 20:42:00,94.0,71.0,29.93,North,355,0.0,3.0,47,0.00,,,0.00,,2013-07-31 01:42:00,
2013-07-30 20:52:00,94.0,71.0,29.93,North,355,0.0,3.0,47,0.00,,,0.00,,2013-07-31 01:52:00,
2013-07-30 21:02:00,93.0,70.0,29.93,NNE,27,0.0,1.0,47,0.00,,,0.00,,2013-07-31 02:02:00,
2013-07-30 21:12:00,93.0,70.0,29.93,NNE,27,0.0,1.0,47,0.00,,,0.00,,2013-07-31 02:12:00,
2013-07-30 21:22:00,93.0,69.0,29.93,North,359,1.0,4.0,46,0.00,,,0.00,,2013-07-31 02:22:00,
2013-07-30 21:32:00,93.0,69.0,29.93,North,359,1.0,4.0,46,0.00,,,0.00,,2013-07-31 02:32:00,
2013-07-30 21:42:00,93.0,69.0,29.93,NNE,33,0.0,7.0,46,0.00,,,0.00,,2013-07-31 02:42:00,
2013-07-30 21:52:00,91.0,68.0,29.94,North,8,0.0,2.0,47,0.00,,,0.00,,2013-07-31 02:52:00,
2013-07-30 22:02:00,91.0,68.0,29.94,North,8,0.0,2.0,47,0.00,,,0.00,,2013-07-31 03:02:00,
2013-07-30 22:12:00,90.0,68.0,29.95,West,278,0.0,0.0,49,0.00,,,0.00,,2013-07-31 03:12:00,
2013-07-30 22:22:00,88.0,68.0,29.96,West,278,0.0,0.0,52,0.00,,,0.00,,2013-07-31 03:22:00,
2013-07-30 22:32:00,88.0,68.0,29.96,West,278,0.0,0.0,52,0.00,,,0.00,,2013-07-31 03:32:00,
2013-07-30 22:42:00,87.0,68.0,29.96,West,278,0.0,0.0,54,0.00,,,0.00,,2013-07-31 03:42:00,
2013-07-30 22:52:00,86.0,68.0,29.96,NNE,33,0.0,1.0,55,0.00,,,0.00,,2013-07-31 03:52:00,
2013-07-30 23:02:00,86.0,68.0,29.96,NNE,33,0.0,1.0,55,0.00,,,0.00,,2013-07-31 04:02:00,
2013-07-30 23:12:00,86.0,68.0,29.96,West,271,0.0,1.0,55,0.00,,,0.00,,2013-07-31 04:12:00,
2013-07-30 23:22:00,86.0,68.0,29.96,West,271,0.0,1.0,55,0.00,,,0.00,,2013-07-31 04:22:00,
2013-07-30 23:32:00,86.0,68.0,29.96,West,271,0.0,1.0,55,0.00,,,0.00,,2013-07-31 04:32:00,
2013-07-30 23:42:00,86.0,68.0,29.96,West,271,0.0,1.0,55,0.00,,,0.00,,2013-07-31 04:42:00,
2013-07-30 23:52:00,86.0,68.0,29.96,West,271,0.0,1.0,55,0.00,,,0.00,,2013-07-31 04:52:00,